Regional Weather Roundup
Issued by NWS Green Bay, WI

Home | Current Version | Previous Version | Text Only | Print | Product List | Glossary On
Versions: 1 2 3 4 5 6 7 8 9 10 11 12 13 14 15 16 17 18 19 20 21 22 23 24 25 26 27 28 29 30 31 32 33 34 35 36 37 38 39 40 41 42 43 44 45 46 47 48 49 50
000
ASUS43 KGRB 201910
RWRGRB

NORTH-CENTRAL AND NORTHEAST WISCONSIN REGIONAL WEATHER ROUNDUP
NATIONAL WEATHER SERVICE GREEN BAY WI
200 PM CDT SAT SEP 20 2014

WIZ005-009-010>012-018-019-202000-
NORTH CENTRAL WISCONSIN

CITY           SKY/WX    TMP DP  RH WIND       PRES   REMARKS
IRONWOOD       PTSUNNY   64  57  77 NW17      29.69F
MANITOWISH WTR CLOUDY    66  56  70 NW8       29.71F
ARBOR VITAE    MOSUNNY   70  57  63 NW14      29.72S
EAGLE RIVER    PTSUNNY   68  53  59 NW12      29.70F
LAND O LAKES   PTSUNNY   68  55  62 NW8G18    29.72F
RHINELANDER    PTSUNNY   69  56  62 N9        29.72S
PHILLIPS       MOSUNNY   68  55  62 NW9       29.71F
ANTIGO         PTSUNNY   72  58  60 W14       29.71S
TOMAHAWK       PTSUNNY   73  55  54 W10       29.71S
MERRILL        MOSUNNY   74  57  55 NW14      29.70F
$$

WIZ013-073-202000-
NORTHEAST WISCONSIN

CITY           SKY/WX    TMP DP  RH WIND       PRES   REMARKS
IRON MOUNTAIN  PTSUNNY   75  56  51 NW26G35   29.64F
MARINETTE      CLOUDY    73  63  68 W8        29.63F
OCONTO         CLOUDY    72  64  76 SW9       29.66S
$$

WIZ017-030-035>037-045-202000-
CENTRAL WISCONSIN

CITY           SKY/WX    TMP DP  RH WIND       PRES   REMARKS
MEDFORD        MOSUNNY   71  56  59 NW10      29.72F
WAUSAU         PTSUNNY   74  58  57 W17G23    29.69F
MOSINEE        MOSUNNY   72  63  73 W13G18    29.72F
MARSHFIELD     PTSUNNY   75  59  57 W15G25    29.73F
WISC RAPIDS    CLOUDY    74  63  68 W10       29.74S
STEVENS POINT  CLOUDY    72  61  68 W7        29.72F
WAUPACA        CLOUDY    72  65  77 SW10      29.72F
SHAWANO        CLOUDY    74  63  66 SW8       29.69F
CLINTONVILLE   CLOUDY    72  61  68 SW9       29.70S
$$

WIZ038-039-048-051-202000-
FOX VALLEY

CITY           SKY/WX    TMP DP  RH WIND       PRES   REMARKS
NWS GREEN BAY  CLOUDY    71  64  78 SW9       29.70F
APPLETON       CLOUDY    70  61  73 SW14      29.74S
OSHKOSH        CLOUDY    71  64  78 SW8G16    29.75R
FOND DU LAC    CLOUDY    72  63  73 W9G22     29.75F
$$

WIZ022-050-052-202000-
EAST CENTRAL WISCONSIN

CITY           SKY/WX    TMP DP  RH WIND       PRES   REMARKS
STURGEON BAY   CLOUDY    70  63  78 SW13      29.67F
MANITOWOC      CLOUDY    73  65  75 W9G21     29.72R
SHEBOYGAN      CLOUDY    75  63  66 SW18      29.74F
$$

LMZ563-521-522-541>543-202000-
LAKESHORE

STATION/POSITION TIME  TEMP    WIND        PRES    VSBY  WAVE
                       AIR SEA DIR/SP/G                  HT/PER
                 (UTC) (F)     (DEG/KT/KT) (MB)    (MI)  (FT/S)
SHEBOYGAN LKSHOR 1900   74 55  240/ 15/ 18 1006.9F
KEWAUNEE LKSHORE 1900   71     250/  9/ 13 1004.8R
NORTHPORT PIER   1900   73     220/  3/ 12 1003.4F
N MID LAKE BUOY  1900   60 58  220/ 17/ 21 1003.0F         6/ 7
S GREEN BAY BUOY 1900   63     VRB 10/ 14  1005.6
SISTER BAY LKSHO 1800          220/ 14/ 18   N/A
CHAMBERS ISLAND  1900   68     170/  4/ 11 1003.7S
MENOMINEE LKSHOR 1900   73     220/ 10/ 14 1004.5R
$$



USA.gov is the U.S. government's official web portal to all federal, state and local government web resources and services.